Location: Lalanga
(4.5882°N, 32.9072°E)
Time: 01:15:34
(UTC+00:00)

Hubble Space Telescope - Visible Passes

Search period start: 29 March 2020 00:00
Search period end: 08 April 2020 00:00
Orbit: 536 x 540 km, 28.5° (Epoch: 28 March)

Date Brightness Start Highest point End Pass type
(mag) Time Alt. Az. Time Alt. Az. Time Alt. Az.
29 Mar 2.4 17:32:56 10° SW 17:35:01 25° SSW 17:35:01 25° SSW visible
30 Mar 1.1 17:22:07 10° SW 17:25:35 52° S 17:25:35 52° S visible
31 Mar 0.6 17:11:24 10° WSW 17:15:31 84° SSE 17:16:12 60° ENE visible
01 Apr 3.7 01:46:19 11° NNE 01:46:19 11° NNE 01:47:12 10° NE visible
01 Apr 1.6 03:23:44 10° NW 03:27:45 50° NNE 03:31:47 10° ESE visible
01 Apr 1.0 17:00:47 10° WSW 17:04:52 67° NNW 17:06:51 29° NE visible
02 Apr 3.7 01:36:48 13° NE 01:36:48 13° NE 01:37:58 10° ENE visible
02 Apr 1.0 03:12:59 10° NW 03:17:07 73° NNE 03:21:15 10° ESE visible
02 Apr 1.6 16:50:16 10° WSW 16:54:14 46° NNW 16:57:30 14° NE visible
03 Apr 3.8 01:27:22 13° ENE 01:27:22 13° ENE 01:28:07 10° ENE visible
03 Apr 0.7 03:02:45 13° WNW 03:06:28 78° SSW 03:10:36 10° SE visible
03 Apr 2.3 16:39:52 10° W 16:43:36 33° NNW 16:47:21 10° NE visible
04 Apr 4.1 01:18:00 10° E 01:18:00 10° E 01:18:01 10° E visible
04 Apr 1.0 02:53:22 22° W 02:55:48 53° SSW 02:59:51 10° SE visible
04 Apr 2.8 16:29:36 10° W 16:33:00 24° NNW 16:36:23 10° NNE visible
05 Apr 1.4 02:44:01 30° WSW 02:45:10 37° SSW 02:49:00 10° SE visible
05 Apr 3.2 16:19:30 10° WNW 16:22:24 18° NNW 16:25:19 10° NNE visible
06 Apr 1.9 02:34:39 26° SSW 02:34:39 26° SSW 02:38:02 10° SSE visible
07 Apr 2.8 02:25:14 17° S 02:25:14 17° S 02:26:53 10° SSE visible
